Weather History for Roseau, MN

Change the Weather History Date:

Monday, September 10, 2012

  Actual Average Record
Temperature  
Mean Temperature 70 °F -  
Max Temperature 86 °F 69 °F 90 °F (1952)
Min Temperature 53 °F 44 °F 27 °F (1989)
Cooling Degree Days 4    
Growing Degree Days 20 (Base 50)    
Moisture  
Dew Point 51 °F    
Average Humidity 56    
Maximum Humidity 77    
Minimum Humidity 31    
Precipitation  
Precipitation 0.00 in - - ()
Sea Level Pressure  
Sea Level Pressure 29.71 in    
Wind  
Wind Speed 12 mph (South)    
Max Wind Speed 23 mph    
Max Gust Speed 32 mph    
Visibility 10 miles    
Events      
Averages and records for this station are not official NWS values.
T = Trace of Precipitation, MM = Missing Value Source: NWS Daily Summary

Daily Weather History Graph

Daily Weather History Graph

Search for Another Location

Airport:

Trip Planner

Search our weather history database for the weather conditions in past years. The results will help you decide how hot, cold, wet, or windy it might be!

Date:

Astronomy

Sep. 10, 2012 Rise Set
Actual Time 6:53 AM CDT 7:45 PM CDT
Civil Twilight 6:20 AM CDT 8:17 PM CDT
Nautical Twilight 5:42 AM CDT 8:55 PM CDT
Astronomical Twilight 5:01 AM CDT 9:35 PM CDT
Moon 12:53 AM CDT (9/10) 4:35 PM CDT (9/10)
Length of Visible Light 13h 56m
Length of Day
12h 52m
Waning Crescent, 30% of the Moon is Illuminated
Sep 10
Waning Crescent
Sep 15
New
Sep 22
First Quarter
Sep 29
Full
Oct 8
Last Quarter

Hourly Weather History & Observations

Time (CDT) Temp. Heat Index Dew Point Humidity Pressure Visibility Wind Dir Wind Speed Gust Speed Precip Events Conditions
12:14 AM 53.6 °F - 46.4 °F 77% 29.94 in 10.0 mi SSE 5.8 mph - N/A   Clear
12:34 AM 53.6 °F - 46.4 °F 77% 29.93 in 10.0 mi South 6.9 mph - N/A   Clear
12:55 AM 53.6 °F - 46.4 °F 77% 29.92 in 10.0 mi South 9.2 mph - N/A   Clear
1:14 AM 53.6 °F - 46.4 °F 77% 29.92 in 10.0 mi South 10.4 mph - N/A   Clear
1:35 AM 53.6 °F - 46.4 °F 77% 29.91 in 10.0 mi South 10.4 mph - N/A   Clear
1:54 AM 53.6 °F - 46.4 °F 77% 29.90 in 10.0 mi South 8.1 mph - N/A   Clear
2:14 AM 55.4 °F - 46.4 °F 72% 29.89 in 10.0 mi South 11.5 mph - N/A   Clear
2:35 AM 55.4 °F - 46.4 °F 72% 29.89 in 10.0 mi South 10.4 mph - N/A   Clear
2:54 AM 55.4 °F - 46.4 °F 72% 29.88 in 10.0 mi South 10.4 mph - N/A   Clear
3:14 AM 55.4 °F - 46.4 °F 72% 29.88 in 10.0 mi South 10.4 mph - N/A   Clear
3:35 AM 55.4 °F - 46.4 °F 72% 29.86 in 10.0 mi South 12.7 mph - N/A   Clear
3:54 AM 55.4 °F - 46.4 °F 72% 29.85 in 10.0 mi South 15.0 mph - N/A   Clear
4:14 AM 55.4 °F - 46.4 °F 72% 29.85 in 10.0 mi South 12.7 mph - N/A   Clear
4:34 AM 53.6 °F - 46.4 °F 77% 29.84 in 10.0 mi South 11.5 mph - N/A   Clear
4:54 AM 55.4 °F - 48.2 °F 77% 29.83 in 10.0 mi South 13.8 mph - N/A   Clear
5:14 AM 55.4 °F - 48.2 °F 77% 29.82 in 10.0 mi South 15.0 mph 19.6 mph N/A   Clear
5:34 AM 55.4 °F - 48.2 °F 77% 29.81 in 10.0 mi South 13.8 mph - N/A   Clear
5:54 AM 57.2 °F - 48.2 °F 72% 29.80 in 10.0 mi South 12.7 mph - N/A   Clear
6:15 AM 57.2 °F - 48.2 °F 72% 29.79 in 10.0 mi South 15.0 mph - N/A   Clear
6:34 AM 57.2 °F - 48.2 °F 72% 29.79 in 10.0 mi South 11.5 mph - N/A   Clear
6:54 AM 57.2 °F - 48.2 °F 72% 29.78 in 10.0 mi South 12.7 mph - N/A   Clear
7:15 AM 57.2 °F - 48.2 °F 72% 29.78 in 10.0 mi South 11.5 mph 18.4 mph N/A   Clear
7:34 AM 57.2 °F - 48.2 °F 72% 29.77 in 10.0 mi South 10.4 mph - N/A   Clear
7:54 AM 59.0 °F - 48.2 °F 67% 29.76 in 10.0 mi South 15.0 mph 19.6 mph N/A   Clear
8:15 AM 60.8 °F - 48.2 °F 63% 29.76 in 10.0 mi South 10.4 mph 20.7 mph N/A   Clear
8:34 AM 62.6 °F - 48.2 °F 59% 29.75 in 10.0 mi South 16.1 mph 20.7 mph N/A   Clear
8:54 AM 64.4 °F - 48.2 °F 56% 29.74 in 10.0 mi South 17.3 mph 23.0 mph N/A   Clear
9:14 AM 64.4 °F - 50.0 °F 59% 29.74 in 10.0 mi South 16.1 mph 21.9 mph N/A   Clear
9:34 AM 66.2 °F - 50.0 °F 56% 29.73 in 10.0 mi South 17.3 mph 20.7 mph N/A   Clear
9:55 AM 66.2 °F - 50.0 °F 56% 29.72 in 10.0 mi South 16.1 mph - N/A   Clear
10:14 AM 68.0 °F - 51.8 °F 56% 29.72 in 10.0 mi South 15.0 mph - N/A   Clear
10:34 AM 69.8 °F - 51.8 °F 53% 29.71 in 10.0 mi South 15.0 mph 18.4 mph N/A   Clear
10:55 AM 71.6 °F - 51.8 °F 50% 29.70 in 10.0 mi South 18.4 mph - N/A   Clear
11:14 AM 73.4 °F - 51.8 °F 47% 29.70 in 10.0 mi SSW 15.0 mph 21.9 mph N/A   Clear
11:34 AM 75.2 °F - 51.8 °F 44% 29.69 in 10.0 mi South 17.3 mph 21.9 mph N/A   Clear
11:55 AM 78.8 °F - 51.8 °F 39% 29.68 in 10.0 mi South 15.0 mph 19.6 mph N/A   Clear
12:14 PM 78.8 °F - 51.8 °F 39% 29.67 in 10.0 mi South 17.3 mph 23.0 mph N/A   Clear
12:34 PM 80.6 °F - 51.8 °F 37% 29.65 in 10.0 mi South 15.0 mph - N/A   Clear
12:54 PM 82.4 °F - 51.8 °F 35% 29.65 in 10.0 mi South 16.1 mph 21.9 mph N/A   Clear
1:14 PM 82.4 °F - 51.8 °F 35% 29.64 in 10.0 mi South 13.8 mph 19.6 mph N/A   Clear
1:34 PM 84.2 °F - 51.8 °F 33% 29.63 in 10.0 mi South 17.3 mph 26.5 mph N/A   Clear
1:54 PM 84.2 °F - 51.8 °F 33% 29.62 in 10.0 mi South 19.6 mph 24.2 mph N/A   Clear
2:14 PM 84.2 °F - 51.8 °F 33% 29.61 in 10.0 mi South 21.9 mph 26.5 mph N/A   Clear
2:34 PM 84.2 °F - 51.8 °F 33% 29.61 in 10.0 mi South 21.9 mph 26.5 mph N/A   Clear
2:54 PM 86.0 °F - 51.8 °F 31% 29.60 in 10.0 mi South 17.3 mph 27.6 mph N/A   Clear
3:14 PM 86.0 °F - 51.8 °F 31% 29.62 in 10.0 mi SSW 23.0 mph 26.5 mph N/A   Clear
3:34 PM 86.0 °F - 51.8 °F 31% 29.61 in 10.0 mi SSW 19.6 mph 25.3 mph N/A   Clear
3:54 PM 86.0 °F - 51.8 °F 31% 29.60 in 10.0 mi South 19.6 mph 32.2 mph N/A   Clear
4:14 PM 84.2 °F - 51.8 °F 33% 29.59 in 10.0 mi SSW 20.7 mph 27.6 mph N/A   Clear
4:34 PM 84.2 °F - 51.8 °F 33% 29.59 in 10.0 mi South 18.4 mph 29.9 mph N/A   Clear
4:54 PM 84.2 °F - 51.8 °F 33% 29.59 in 10.0 mi SSW 17.3 mph 25.3 mph N/A   Clear
5:14 PM 84.2 °F 82.8 °F 53.6 °F 35% 29.58 in 10.0 mi South 16.1 mph 23.0 mph N/A   Clear
5:34 PM 82.4 °F - 51.8 °F 35% 29.58 in 10.0 mi South 17.3 mph 26.5 mph N/A   Clear
5:54 PM 84.2 °F - 51.8 °F 33% 29.58 in 10.0 mi SSW 16.1 mph 27.6 mph N/A   Clear
6:14 PM 84.2 °F - 51.8 °F 33% 29.58 in 10.0 mi SSW 17.3 mph 26.5 mph N/A   Clear
6:34 PM 84.2 °F - 51.8 °F 33% 29.58 in 10.0 mi SSW 20.7 mph 24.2 mph N/A   Clear
6:54 PM 82.4 °F 81.4 °F 53.6 °F 37% 29.58 in 10.0 mi SSW 11.5 mph - N/A   Clear
7:14 PM 80.6 °F 80.3 °F 53.6 °F 39% 29.58 in 10.0 mi South 9.2 mph - N/A   Clear
7:34 PM 78.8 °F - 55.4 °F 44% 29.58 in 10.0 mi South 8.1 mph - N/A   Clear
7:55 PM 77.0 °F - 55.4 °F 47% 29.59 in 10.0 mi South 8.1 mph - N/A   Clear
8:14 PM 75.2 °F - 55.4 °F 50% 29.59 in 10.0 mi South 6.9 mph - N/A   Clear
8:34 PM 71.6 °F - 55.4 °F 57% 29.60 in 10.0 mi South 5.8 mph - N/A   Clear
8:55 PM 69.8 °F - 53.6 °F 56% 29.60 in 10.0 mi South 6.9 mph - N/A   Clear
9:14 PM 66.2 °F - 53.6 °F 64% 29.60 in 10.0 mi South 5.8 mph - N/A   Clear
9:34 PM 66.2 °F - 53.6 °F 64% 29.60 in 10.0 mi South 5.8 mph - N/A   Clear
9:55 PM 64.4 °F - 53.6 °F 68% 29.61 in 10.0 mi South 5.8 mph - N/A   Clear
10:14 PM 64.4 °F - 53.6 °F 68% 29.61 in 10.0 mi South 8.1 mph - N/A   Clear
10:35 PM 62.6 °F - 53.6 °F 72% 29.62 in 10.0 mi South 5.8 mph - N/A   Clear
10:54 PM 62.6 °F - 53.6 °F 72% 29.62 in 10.0 mi South 9.2 mph - N/A   Clear
11:14 PM 62.6 °F - 53.6 °F 72% 29.62 in 10.0 mi South 8.1 mph - N/A   Clear
11:35 PM 62.6 °F - 53.6 °F 72% 29.62 in 10.0 mi South 6.9 mph - N/A   Clear
11:54 PM 62.6 °F - 53.6 °F 72% 29.62 in 10.0 mi South 8.1 mph - N/A   Clear